owner,sensor,date,latitude,longitude,air_temperature,qcFlag 
COMPS,ioos:station:USF.COMPS:EGK:1,2011-01-01T00:00:00Z,27.6010,-82.7510,17.28,1111122 
COMPS,ioos:station:USF.COMPS:EGK:1,2011-01-01T00:06:00Z,27.6010,-82.7510,17.29,1111122 
COMPS,ioos:station:USF.COMPS:EGK:1,2011-01-01T00:12:00Z,27.6010,-82.7510,17.35,1111122 
COMPS,ioos:station:USF.COMPS:EGK:1,2011-01-01T00:18:00Z,27.6010,-82.7510,17.37,1111122 
COMPS,ioos:station:USF.COMPS:EGK:1,2011-01-01T00:24:00Z,27.6010,-82.7510,17.56,1111122 
COMPS,ioos:station:USF.COMPS:EGK:1,2011-01-01T00:30:00Z,27.6010,-82.7510,17.22,1111122 
COMPS,ioos:station:USF.COMPS:EGK:1,2011-01-01T00:36:00Z,27.6010,-82.7510,16.8,1111122 
COMPS,ioos:station:USF.COMPS:EGK:1,2011-01-01T00:42:00Z,27.6010,-82.7510,16.52,1111122 
COMPS,ioos:station:USF.COMPS:EGK:1,2011-01-01T00:48:00Z,27.6010,-82.7510,16.34,1111122 
COMPS,ioos:station:USF.COMPS:EGK:1,2011-01-01T00:54:00Z,27.6010,-82.7510,16.35,1111122 
COMPS,ioos:station:USF.COMPS:EGK:1,2011-01-01T01:00:00Z,27.6010,-82.7510,16.4,1111122 
COMPS,ioos:station:USF.COMPS:EGK:1,2011-01-01T12:00:00Z,27.6010,-82.7510,14.69,1111122 
COMPS,ioos:station:USF.COMPS:EGK:1,2011-01-01T12:06:00Z,27.6010,-82.7510,14.74,1111122 
COMPS,ioos:station:USF.COMPS:EGK:1,2011-01-01T12:12:00Z,27.6010,-82.7510,14.82,1111122 
COMPS,ioos:station:USF.COMPS:EGK:1,2011-01-01T12:18:00Z,27.6010,-82.7510,14.85,1111122 
COMPS,ioos:station:USF.COMPS:EGK:1,2011-01-01T12:24:00Z,27.6010,-82.7510,14.82,1111122 
COMPS,ioos:station:USF.COMPS:EGK:1,2011-01-01T12:30:00Z,27.6010,-82.7510,14.75,1111122 
COMPS,ioos:station:USF.COMPS:EGK:1,2011-01-01T12:36:00Z,27.6010,-82.7510,14.82,1111122 
COMPS,ioos:station:USF.COMPS:EGK:1,2011-01-01T12:42:00Z,27.6010,-82.7510,14.94,1111122 
COMPS,ioos:station:USF.COMPS:EGK:1,2011-01-01T12:48:00Z,27.6010,-82.7510,15.0,1111122 
COMPS,ioos:station:USF.COMPS:EGK:1,2011-01-01T12:54:00Z,27.6010,-82.7510,15.03,1111122 
COMPS,ioos:station:USF.COMPS:EGK:1,2011-01-01T13:00:00Z,27.6010,-82.7510,15.0,1111122 
COMPS,ioos:station:USF.COMPS:EGK:1,2011-01-01T13:06:00Z,27.6010,-82.7510,14.96,1111122 
COMPS,ioos:station:USF.COMPS:EGK:1,2011-01-01T13:12:00Z,27.6010,-82.7510,14.96,1111122 
COMPS,ioos:station:USF.COMPS:EGK:1,2011-01-01T13:18:00Z,27.6010,-82.7510,15.09,1111122 
COMPS,ioos:station:USF.COMPS:EGK:1,2011-01-01T13:24:00Z,27.6010,-82.7510,15.1,1111122 
COMPS,ioos:station:USF.COMPS:EGK:1,2011-01-01T13:30:00Z,27.6010,-82.7510,15.22,1111122 
COMPS,ioos:station:USF.COMPS:EGK:1,2011-01-01T13:36:00Z,27.6010,-82.7510,15.28,1111122 
COMPS,ioos:station:USF.COMPS:EGK:1,2011-01-01T13:42:00Z,27.6010,-82.7510,15.27,1111122 
COMPS,ioos:station:USF.COMPS:EGK:1,2011-01-01T13:48:00Z,27.6010,-82.7510,15.22,1111122 
COMPS,ioos:station:USF.COMPS:EGK:1,2011-01-01T13:54:00Z,27.6010,-82.7510,15.16,1111122 
COMPS,ioos:station:USF.COMPS:EGK:1,2011-01-01T14:00:00Z,27.6010,-82.7510,15.2,1111122 
COMPS,ioos:station:USF.COMPS:EGK:1,2011-01-01T14:06:00Z,27.6010,-82.7510,15.11,1111122 
COMPS,ioos:station:USF.COMPS:EGK:1,2011-01-01T14:12:00Z,27.6010,-82.7510,15.23,1111122 
COMPS,ioos:station:USF.COMPS:EGK:1,2011-01-01T14:18:00Z,27.6010,-82.7510,15.44,1111122 
COMPS,ioos:station:USF.COMPS:EGK:1,2011-01-01T14:24:00Z,27.6010,-82.7510,15.52,1111122 
COMPS,ioos:station:USF.COMPS:EGK:1,2011-01-01T14:30:00Z,27.6010,-82.7510,15.65,1111122 
COMPS,ioos:station:USF.COMPS:EGK:1,2011-01-01T14:36:00Z,27.6010,-82.7510,15.59,1111122 
COMPS,ioos:station:USF.COMPS:EGK:1,2011-01-01T14:42:00Z,27.6010,-82.7510,15.61,1111122 
COMPS,ioos:station:USF.COMPS:EGK:1,2011-01-01T14:48:00Z,27.6010,-82.7510,15.64,1111122 
COMPS,ioos:station:USF.COMPS:EGK:1,2011-01-01T14:54:00Z,27.6010,-82.7510,15.59,1111122 
COMPS,ioos:station:USF.COMPS:EGK:1,2011-01-01T15:00:00Z,27.6010,-82.7510,15.6,1111122 
COMPS,ioos:station:USF.COMPS:EGK:1,2011-01-01T15:06:00Z,27.6010,-82.7510,15.76,1111122 
COMPS,ioos:station:USF.COMPS:EGK:1,2011-01-01T15:12:00Z,27.6010,-82.7510,15.94,1111122 
COMPS,ioos:station:USF.COMPS:EGK:1,2011-01-01T15:18:00Z,27.6010,-82.7510,16.11,1111122 
COMPS,ioos:station:USF.COMPS:EGK:1,2011-01-01T15:24:00Z,27.6010,-82.7510,16.47,1111122 
COMPS,ioos:station:USF.COMPS:EGK:1,2011-01-01T15:30:00Z,27.6010,-82.7510,16.6,1111122 
COMPS,ioos:station:USF.COMPS:EGK:1,2011-01-01T15:36:00Z,27.6010,-82.7510,16.63,1111122 
COMPS,ioos:station:USF.COMPS:EGK:1,2011-01-01T15:42:00Z,27.6010,-82.7510,17.63,1111122 
COMPS,ioos:station:USF.COMPS:EGK:1,2011-01-01T15:48:00Z,27.6010,-82.7510,18.03,1111122 
COMPS,ioos:station:USF.COMPS:EGK:1,2011-01-01T15:54:00Z,27.6010,-82.7510,18.03,1111122 
COMPS,ioos:station:USF.COMPS:EGK:1,2011-01-01T16:00:00Z,27.6010,-82.7510,18.0,1111122 
COMPS,ioos:station:USF.COMPS:EGK:1,2011-01-01T16:06:00Z,27.6010,-82.7510,18.05,1111122 
COMPS,ioos:station:USF.COMPS:EGK:1,2011-01-01T16:12:00Z,27.6010,-82.7510,17.93,1111122 
COMPS,ioos:station:USF.COMPS:EGK:1,2011-01-01T16:18:00Z,27.6010,-82.7510,18.26,1111122 
COMPS,ioos:station:USF.COMPS:EGK:1,2011-01-01T16:24:00Z,27.6010,-82.7510,18.14,1111122 
COMPS,ioos:station:USF.COMPS:EGK:1,2011-01-01T16:30:00Z,27.6010,-82.7510,18.23,1111122 
COMPS,ioos:station:USF.COMPS:EGK:1,2011-01-01T16:36:00Z,27.6010,-82.7510,18.44,1111122 
COMPS,ioos:station:USF.COMPS:EGK:1,2011-01-01T16:42:00Z,27.6010,-82.7510,18.64,1111122 
COMPS,ioos:station:USF.COMPS:EGK:1,2011-01-01T16:48:00Z,27.6010,-82.7510,18.6,1111122 
COMPS,ioos:station:USF.COMPS:EGK:1,2011-01-01T16:54:00Z,27.6010,-82.7510,19.07,1111122 
COMPS,ioos:station:USF.COMPS:EGK:1,2011-01-01T17:00:00Z,27.6010,-82.7510,19.1,1111122 
COMPS,ioos:station:USF.COMPS:EGK:1,2011-01-01T17:06:00Z,27.6010,-82.7510,19.46,1111122 
COMPS,ioos:station:USF.COMPS:EGK:1,2011-01-01T17:12:00Z,27.6010,-82.7510,19.43,1111122 
COMPS,ioos:station:USF.COMPS:EGK:1,2011-01-01T17:18:00Z,27.6010,-82.7510,19.27,1111122 
COMPS,ioos:station:USF.COMPS:EGK:1,2011-01-01T17:24:00Z,27.6010,-82.7510,19.18,1111122 
COMPS,ioos:station:USF.COMPS:EGK:1,2011-01-01T17:30:00Z,27.6010,-82.7510,19.02,1111122 
COMPS,ioos:station:USF.COMPS:EGK:1,2011-01-01T17:36:00Z,27.6010,-82.7510,19.47,1111122 
COMPS,ioos:station:USF.COMPS:EGK:1,2011-01-01T17:42:00Z,27.6010,-82.7510,19.3,1111122 
COMPS,ioos:station:USF.COMPS:EGK:1,2011-01-01T17:48:00Z,27.6010,-82.7510,19.61,1111122 
COMPS,ioos:station:USF.COMPS:EGK:1,2011-01-01T17:54:00Z,27.6010,-82.7510,19.59,1111122 
COMPS,ioos:station:USF.COMPS:EGK:1,2011-01-01T18:00:00Z,27.6010,-82.7510,19.6,1111122 
COMPS,ioos:station:USF.COMPS:EGK:1,2011-01-01T18:06:00Z,27.6010,-82.7510,19.41,1111122 
COMPS,ioos:station:USF.COMPS:EGK:1,2011-01-01T18:12:00Z,27.6010,-82.7510,19.27,1111122 
COMPS,ioos:station:USF.COMPS:EGK:1,2011-01-01T18:18:00Z,27.6010,-82.7510,19.62,1111122 
COMPS,ioos:station:USF.COMPS:EGK:1,2011-01-01T18:24:00Z,27.6010,-82.7510,19.77,1111122 
COMPS,ioos:station:USF.COMPS:EGK:1,2011-01-01T18:30:00Z,27.6010,-82.7510,19.81,1111122 
COMPS,ioos:station:USF.COMPS:EGK:1,2011-01-01T18:36:00Z,27.6010,-82.7510,19.76,1111122 
COMPS,ioos:station:USF.COMPS:EGK:1,2011-01-01T18:42:00Z,27.6010,-82.7510,19.56,1111122 
COMPS,ioos:station:USF.COMPS:EGK:1,2011-01-01T18:48:00Z,27.6010,-82.7510,19.54,1111122 
COMPS,ioos:station:USF.COMPS:EGK:1,2011-01-01T18:54:00Z,27.6010,-82.7510,19.65,1111122 
COMPS,ioos:station:USF.COMPS:EGK:1,2011-01-01T19:00:00Z,27.6010,-82.7510,19.7,1111122 
COMPS,ioos:station:USF.COMPS:EGK:1,2011-01-01T19:06:00Z,27.6010,-82.7510,19.53,1111122 
COMPS,ioos:station:USF.COMPS:EGK:1,2011-01-01T19:12:00Z,27.6010,-82.7510,19.52,1111122 
COMPS,ioos:station:USF.COMPS:EGK:1,2011-01-01T19:18:00Z,27.6010,-82.7510,19.54,1111122 
COMPS,ioos:station:USF.COMPS:EGK:1,2011-01-01T19:24:00Z,27.6010,-82.7510,19.33,1111122 
COMPS,ioos:station:USF.COMPS:EGK:1,2011-01-01T19:30:00Z,27.6010,-82.7510,19.3,1111122 
COMPS,ioos:station:USF.COMPS:EGK:1,2011-01-01T19:36:00Z,27.6010,-82.7510,19.38,1111122 
COMPS,ioos:station:USF.COMPS:EGK:1,2011-01-01T19:42:00Z,27.6010,-82.7510,19.61,1111122 
COMPS,ioos:station:USF.COMPS:EGK:1,2011-01-01T19:48:00Z,27.6010,-82.7510,19.65,1111122 
COMPS,ioos:station:USF.COMPS:EGK:1,2011-01-01T19:54:00Z,27.6010,-82.7510,19.46,1111122 
COMPS,ioos:station:USF.COMPS:EGK:1,2011-01-01T20:00:00Z,27.6010,-82.7510,19.5,1111122 
COMPS,ioos:station:USF.COMPS:EGK:1,2011-01-01T20:06:00Z,27.6010,-82.7510,19.4,1111122 
COMPS,ioos:station:USF.COMPS:EGK:1,2011-01-01T20:12:00Z,27.6010,-82.7510,19.22,1111122 
COMPS,ioos:station:USF.COMPS:EGK:1,2011-01-01T20:18:00Z,27.6010,-82.7510,19.03,1111122 
COMPS,ioos:station:USF.COMPS:EGK:1,2011-01-01T20:24:00Z,27.6010,-82.7510,19.06,1111122 
COMPS,ioos:station:USF.COMPS:EGK:1,2011-01-01T20:30:00Z,27.6010,-82.7510,19.17,1111122 
COMPS,ioos:station:USF.COMPS:EGK:1,2011-01-01T20:36:00Z,27.6010,-82.7510,19.01,1111122 
COMPS,ioos:station:USF.COMPS:EGK:1,2011-01-01T20:42:00Z,27.6010,-82.7510,19.56,1111122 
COMPS,ioos:station:USF.COMPS:EGK:1,2011-01-01T20:48:00Z,27.6010,-82.7510,19.66,1111122 
COMPS,ioos:station:USF.COMPS:EGK:1,2011-01-01T20:54:00Z,27.6010,-82.7510,19.47,1111122 
COMPS,ioos:station:USF.COMPS:EGK:1,2011-01-01T21:00:00Z,27.6010,-82.7510,19.5,1111122 
COMPS,ioos:station:USF.COMPS:EGK:1,2011-01-01T21:06:00Z,27.6010,-82.7510,19.51,1111122 
COMPS,ioos:station:USF.COMPS:EGK:1,2011-01-01T21:12:00Z,27.6010,-82.7510,19.46,1111122 
COMPS,ioos:station:USF.COMPS:EGK:1,2011-01-01T21:18:00Z,27.6010,-82.7510,19.48,1111122 
COMPS,ioos:station:USF.COMPS:EGK:1,2011-01-01T21:24:00Z,27.6010,-82.7510,19.56,1111122 
COMPS,ioos:station:USF.COMPS:EGK:1,2011-01-01T21:30:00Z,27.6010,-82.7510,19.49,1111122 
COMPS,ioos:station:USF.COMPS:EGK:1,2011-01-01T21:36:00Z,27.6010,-82.7510,19.48,1111122 
COMPS,ioos:station:USF.COMPS:EGK:1,2011-01-01T21:42:00Z,27.6010,-82.7510,19.46,1111122 
COMPS,ioos:station:USF.COMPS:EGK:1,2011-01-01T21:48:00Z,27.6010,-82.7510,19.32,1111122 
COMPS,ioos:station:USF.COMPS:EGK:1,2011-01-01T21:54:00Z,27.6010,-82.7510,19.23,1111122 
COMPS,ioos:station:USF.COMPS:EGK:1,2011-01-01T22:00:00Z,27.6010,-82.7510,19.2,1111122 
COMPS,ioos:station:USF.COMPS:EGK:1,2011-01-01T22:06:00Z,27.6010,-82.7510,19.24,1111122 
COMPS,ioos:station:USF.COMPS:EGK:1,2011-01-01T22:12:00Z,27.6010,-82.7510,19.43,1111122 
COMPS,ioos:station:USF.COMPS:EGK:1,2011-01-01T22:18:00Z,27.6010,-82.7510,19.15,1111122 
COMPS,ioos:station:USF.COMPS:EGK:1,2011-01-01T22:24:00Z,27.6010,-82.7510,18.72,1111122 
COMPS,ioos:station:USF.COMPS:EGK:1,2011-01-01T22:30:00Z,27.6010,-82.7510,18.72,1111122 
COMPS,ioos:station:USF.COMPS:EGK:1,2011-01-01T22:36:00Z,27.6010,-82.7510,18.67,1111122 
COMPS,ioos:station:USF.COMPS:EGK:1,2011-01-01T22:42:00Z,27.6010,-82.7510,18.35,1111122 
COMPS,ioos:station:USF.COMPS:EGK:1,2011-01-01T22:48:00Z,27.6010,-82.7510,18.98,1111122 
COMPS,ioos:station:USF.COMPS:EGK:1,2011-01-01T22:54:00Z,27.6010,-82.7510,18.9,1111122 
COMPS,ioos:station:USF.COMPS:EGK:1,2011-01-01T23:00:00Z,27.6010,-82.7510,18.9,1111122 
COMPS,ioos:station:USF.COMPS:EGK:1,2011-01-01T23:06:00Z,27.6010,-82.7510,18.37,1111122 
COMPS,ioos:station:USF.COMPS:EGK:1,2011-01-01T23:12:00Z,27.6010,-82.7510,18.23,1111122 
COMPS,ioos:station:USF.COMPS:EGK:1,2011-01-01T23:18:00Z,27.6010,-82.7510,18.74,1111122 
COMPS,ioos:station:USF.COMPS:EGK:1,2011-01-01T23:24:00Z,27.6010,-82.7510,19.24,1111122 
COMPS,ioos:station:USF.COMPS:EGK:1,2011-01-01T23:30:00Z,27.6010,-82.7510,20.01,1111122 
COMPS,ioos:station:USF.COMPS:EGK:1,2011-01-01T23:36:00Z,27.6010,-82.7510,20.1,1111122 
COMPS,ioos:station:USF.COMPS:EGK:1,2011-01-01T23:42:00Z,27.6010,-82.7510,19.86,1111122 
COMPS,ioos:station:USF.COMPS:EGK:1,2011-01-01T23:48:00Z,27.6010,-82.7510,18.47,1111122 
COMPS,ioos:station:USF.COMPS:EGK:1,2011-01-01T23:54:00Z,27.6010,-82.7510,17.36,1111122 
COMPS,ioos:station:USF.COMPS:EGK:1,2011-01-02T00:00:00Z,27.6010,-82.7510,17.4,1111122 
COMPS,ioos:station:USF.COMPS:EGK:1,2011-01-02T00:06:00Z,27.6010,-82.7510,16.0,1111122 
COMPS,ioos:station:USF.COMPS:EGK:1,2011-01-02T00:12:00Z,27.6010,-82.7510,16.02,1111122 
COMPS,ioos:station:USF.COMPS:EGK:1,2011-01-02T00:18:00Z,27.6010,-82.7510,16.08,1111122 
COMPS,ioos:station:USF.COMPS:EGK:1,2011-01-02T00:24:00Z,27.6010,-82.7510,16.15,1111122 
COMPS,ioos:station:USF.COMPS:EGK:1,2011-01-02T00:30:00Z,27.6010,-82.7510,16.65,1111122 
COMPS,ioos:station:USF.COMPS:EGK:1,2011-01-02T00:36:00Z,27.6010,-82.7510,16.86,1111122 
COMPS,ioos:station:USF.COMPS:EGK:1,2011-01-02T00:42:00Z,27.6010,-82.7510,17.08,1111122 
COMPS,ioos:station:USF.COMPS:EGK:1,2011-01-02T00:48:00Z,27.6010,-82.7510,17.09,1111122 
COMPS,ioos:station:USF.COMPS:EGK:1,2011-01-02T00:54:00Z,27.6010,-82.7510,17.11,1111122 
COMPS,ioos:station:USF.COMPS:EGK:1,2011-01-02T01:00:00Z,27.6010,-82.7510,17.1,1111122 
COMPS,ioos:station:USF.COMPS:EGK:1,2011-01-02T15:00:00Z,27.6010,-82.7510,17.42,1111122 
COMPS,ioos:station:USF.COMPS:EGK:1,2011-01-02T15:06:00Z,27.6010,-82.7510,17.34,1111122 
COMPS,ioos:station:USF.COMPS:EGK:1,2011-01-02T15:12:00Z,27.6010,-82.7510,17.59,1111122 
COMPS,ioos:station:USF.COMPS:EGK:1,2011-01-02T15:18:00Z,27.6010,-82.7510,17.46,1111122 
COMPS,ioos:station:USF.COMPS:EGK:1,2011-01-02T15:24:00Z,27.6010,-82.7510,17.67,1111122 
COMPS,ioos:station:USF.COMPS:EGK:1,2011-01-02T15:30:00Z,27.6010,-82.7510,17.93,1111122 
COMPS,ioos:station:USF.COMPS:EGK:1,2011-01-02T15:36:00Z,27.6010,-82.7510,18.23,1111122 
COMPS,ioos:station:USF.COMPS:EGK:1,2011-01-02T15:42:00Z,27.6010,-82.7510,18.5,1111122 
COMPS,ioos:station:USF.COMPS:EGK:1,2011-01-02T15:48:00Z,27.6010,-82.7510,18.42,1111122 
COMPS,ioos:station:USF.COMPS:EGK:1,2011-01-02T15:54:00Z,27.6010,-82.7510,18.5,1111122 
COMPS,ioos:station:USF.COMPS:EGK:1,2011-01-02T16:00:00Z,27.6010,-82.7510,18.5,1111122 
COMPS,ioos:station:USF.COMPS:EGK:1,2011-01-02T16:06:00Z,27.6010,-82.7510,18.53,1111122 
COMPS,ioos:station:USF.COMPS:EGK:1,2011-01-02T16:12:00Z,27.6010,-82.7510,18.44,1111122 
COMPS,ioos:station:USF.COMPS:EGK:1,2011-01-02T16:18:00Z,27.6010,-82.7510,18.45,1111122 
COMPS,ioos:station:USF.COMPS:EGK:1,2011-01-02T16:24:00Z,27.6010,-82.7510,18.83,1111122 
COMPS,ioos:station:USF.COMPS:EGK:1,2011-01-02T16:30:00Z,27.6010,-82.7510,19.17,1111122 
COMPS,ioos:station:USF.COMPS:EGK:1,2011-01-02T16:36:00Z,27.6010,-82.7510,19.7,1111122 
COMPS,ioos:station:USF.COMPS:EGK:1,2011-01-02T16:42:00Z,27.6010,-82.7510,19.94,1111122 
COMPS,ioos:station:USF.COMPS:EGK:1,2011-01-02T16:48:00Z,27.6010,-82.7510,19.18,1111122 
COMPS,ioos:station:USF.COMPS:EGK:1,2011-01-02T16:54:00Z,27.6010,-82.7510,19.08,1111122 
COMPS,ioos:station:USF.COMPS:EGK:1,2011-01-02T17:00:00Z,27.6010,-82.7510,19.1,1111122 
COMPS,ioos:station:USF.COMPS:EGK:1,2011-01-02T17:06:00Z,27.6010,-82.7510,18.56,1111122 
COMPS,ioos:station:USF.COMPS:EGK:1,2011-01-02T17:12:00Z,27.6010,-82.7510,18.61,1111122 
COMPS,ioos:station:USF.COMPS:EGK:1,2011-01-02T17:18:00Z,27.6010,-82.7510,18.57,1111122 
COMPS,ioos:station:USF.COMPS:EGK:1,2011-01-02T17:24:00Z,27.6010,-82.7510,18.46,1111122 
COMPS,ioos:station:USF.COMPS:EGK:1,2011-01-02T17:30:00Z,27.6010,-82.7510,18.35,1111122 
COMPS,ioos:station:USF.COMPS:EGK:1,2011-01-02T17:36:00Z,27.6010,-82.7510,18.27,1111122 
COMPS,ioos:station:USF.COMPS:EGK:1,2011-01-02T17:42:00Z,27.6010,-82.7510,18.23,1111122 
COMPS,ioos:station:USF.COMPS:EGK:1,2011-01-02T17:48:00Z,27.6010,-82.7510,18.42,1111122 
COMPS,ioos:station:USF.COMPS:EGK:1,2011-01-02T17:54:00Z,27.6010,-82.7510,18.58,1111122 
COMPS,ioos:station:USF.COMPS:EGK:1,2011-01-02T18:00:00Z,27.6010,-82.7510,18.6,1111122 
COMPS,ioos:station:USF.COMPS:EGK:1,2011-01-02T18:06:00Z,27.6010,-82.7510,18.42,1111122 
COMPS,ioos:station:USF.COMPS:EGK:1,2011-01-02T18:12:00Z,27.6010,-82.7510,18.26,1111122 
COMPS,ioos:station:USF.COMPS:EGK:1,2011-01-02T18:18:00Z,27.6010,-82.7510,18.24,1111122 
COMPS,ioos:station:USF.COMPS:EGK:1,2011-01-02T18:24:00Z,27.6010,-82.7510,18.4,1111122 
COMPS,ioos:station:USF.COMPS:EGK:1,2011-01-02T18:30:00Z,27.6010,-82.7510,18.47,1111122 
COMPS,ioos:station:USF.COMPS:EGK:1,2011-01-02T18:36:00Z,27.6010,-82.7510,18.47,1111122 
COMPS,ioos:station:USF.COMPS:EGK:1,2011-01-02T18:42:00Z,27.6010,-82.7510,18.51,1111122 
COMPS,ioos:station:USF.COMPS:EGK:1,2011-01-02T18:48:00Z,27.6010,-82.7510,18.58,1111122 
COMPS,ioos:station:USF.COMPS:EGK:1,2011-01-02T18:54:00Z,27.6010,-82.7510,18.69,1111122 
COMPS,ioos:station:USF.COMPS:EGK:1,2011-01-02T19:00:00Z,27.6010,-82.7510,18.7,1111122 
COMPS,ioos:station:USF.COMPS:EGK:1,2011-01-02T19:06:00Z,27.6010,-82.7510,18.91,1111122 
COMPS,ioos:station:USF.COMPS:EGK:1,2011-01-02T19:12:00Z,27.6010,-82.7510,19.03,1111122 
COMPS,ioos:station:USF.COMPS:EGK:1,2011-01-02T19:18:00Z,27.6010,-82.7510,19.31,1111122 
COMPS,ioos:station:USF.COMPS:EGK:1,2011-01-02T19:24:00Z,27.6010,-82.7510,19.35,1111122 
COMPS,ioos:station:USF.COMPS:EGK:1,2011-01-02T19:30:00Z,27.6010,-82.7510,19.23,1111122 
COMPS,ioos:station:USF.COMPS:EGK:1,2011-01-02T19:36:00Z,27.6010,-82.7510,19.09,1111122 
COMPS,ioos:station:USF.COMPS:EGK:1,2011-01-02T19:42:00Z,27.6010,-82.7510,17.68,1111122 
COMPS,ioos:station:USF.COMPS:EGK:1,2011-01-02T19:48:00Z,27.6010,-82.7510,17.11,1111122 
COMPS,ioos:station:USF.COMPS:EGK:1,2011-01-02T19:54:00Z,27.6010,-82.7510,16.96,1111122 
COMPS,ioos:station:USF.COMPS:EGK:1,2011-01-02T20:00:00Z,27.6010,-82.7510,17.0,1111122 
COMPS,ioos:station:USF.COMPS:EGK:1,2011-01-02T20:06:00Z,27.6010,-82.7510,16.22,1111122 
COMPS,ioos:station:USF.COMPS:EGK:1,2011-01-02T20:12:00Z,27.6010,-82.7510,15.99,1111122 
COMPS,ioos:station:USF.COMPS:EGK:1,2011-01-02T20:18:00Z,27.6010,-82.7510,16.27,1111122 
COMPS,ioos:station:USF.COMPS:EGK:1,2011-01-02T20:24:00Z,27.6010,-82.7510,16.0,1111122 
COMPS,ioos:station:USF.COMPS:EGK:1,2011-01-02T20:30:00Z,27.6010,-82.7510,16.05,1111122 
COMPS,ioos:station:USF.COMPS:EGK:1,2011-01-02T20:36:00Z,27.6010,-82.7510,16.05,1111122 
COMPS,ioos:station:USF.COMPS:EGK:1,2011-01-02T20:42:00Z,27.6010,-82.7510,16.73,1111122 
COMPS,ioos:station:USF.COMPS:EGK:1,2011-01-02T20:48:00Z,27.6010,-82.7510,17.08,1111122 
COMPS,ioos:station:USF.COMPS:EGK:1,2011-01-02T20:54:00Z,27.6010,-82.7510,16.67,1111122 
COMPS,ioos:station:USF.COMPS:EGK:1,2011-01-02T21:00:00Z,27.6010,-82.7510,16.7,1111122 
COMPS,ioos:station:USF.COMPS:EGK:1,2011-01-03T18:00:00Z,27.6010,-82.7510,15.22,1111122 
COMPS,ioos:station:USF.COMPS:EGK:1,2011-01-03T18:06:00Z,27.6010,-82.7510,15.36,1111122 
COMPS,ioos:station:USF.COMPS:EGK:1,2011-01-03T18:12:00Z,27.6010,-82.7510,15.62,1111122 
COMPS,ioos:station:USF.COMPS:EGK:1,2011-01-03T18:18:00Z,27.6010,-82.7510,15.84,1111122 
COMPS,ioos:station:USF.COMPS:EGK:1,2011-01-03T18:24:00Z,27.6010,-82.7510,15.57,1111122 
COMPS,ioos:station:USF.COMPS:EGK:1,2011-01-03T18:30:00Z,27.6010,-82.7510,15.48,1111122 
COMPS,ioos:station:USF.COMPS:EGK:1,2011-01-03T18:36:00Z,27.6010,-82.7510,15.52,1111122 
COMPS,ioos:station:USF.COMPS:EGK:1,2011-01-03T18:42:00Z,27.6010,-82.7510,15.38,1111122 
COMPS,ioos:station:USF.COMPS:EGK:1,2011-01-03T18:48:00Z,27.6010,-82.7510,15.06,1111122 
COMPS,ioos:station:USF.COMPS:EGK:1,2011-01-03T18:54:00Z,27.6010,-82.7510,14.69,1111122 
COMPS,ioos:station:USF.COMPS:EGK:1,2011-01-03T20:00:00Z,27.6010,-82.7510,14.52,1111122 
COMPS,ioos:station:USF.COMPS:EGK:1,2011-01-03T20:06:00Z,27.6010,-82.7510,14.52,1111122 
COMPS,ioos:station:USF.COMPS:EGK:1,2011-01-03T20:12:00Z,27.6010,-82.7510,14.76,1111122 
COMPS,ioos:station:USF.COMPS:EGK:1,2011-01-03T20:18:00Z,27.6010,-82.7510,14.62,1111122 
COMPS,ioos:station:USF.COMPS:EGK:1,2011-01-03T20:24:00Z,27.6010,-82.7510,14.82,1111122 
COMPS,ioos:station:USF.COMPS:EGK:1,2011-01-03T20:30:00Z,27.6010,-82.7510,14.51,1111122 
COMPS,ioos:station:USF.COMPS:EGK:1,2011-01-03T20:36:00Z,27.6010,-82.7510,14.51,1111122 
COMPS,ioos:station:USF.COMPS:EGK:1,2011-01-03T20:42:00Z,27.6010,-82.7510,14.71,1111122 
COMPS,ioos:station:USF.COMPS:EGK:1,2011-01-03T20:48:00Z,27.6010,-82.7510,14.59,1111122 
COMPS,ioos:station:USF.COMPS:EGK:1,2011-01-03T20:54:00Z,27.6010,-82.7510,14.51,1111122 
COMPS,ioos:station:USF.COMPS:EGK:1,2011-01-03T21:00:00Z,27.6010,-82.7510,14.5,1111122 
COMPS,ioos:station:USF.COMPS:EGK:1,2011-01-04T12:00:00Z,27.6010,-82.7510,13.19,1111122 
COMPS,ioos:station:USF.COMPS:EGK:1,2011-01-04T12:06:00Z,27.6010,-82.7510,13.19,1111122 
COMPS,ioos:station:USF.COMPS:EGK:1,2011-01-04T12:12:00Z,27.6010,-82.7510,13.19,1111122 
COMPS,ioos:station:USF.COMPS:EGK:1,2011-01-04T12:18:00Z,27.6010,-82.7510,13.19,1111122 
COMPS,ioos:station:USF.COMPS:EGK:1,2011-01-04T12:24:00Z,27.6010,-82.7510,13.19,1111122 
COMPS,ioos:station:USF.COMPS:EGK:1,2011-01-04T12:30:00Z,27.6010,-82.7510,13.19,1111122 
COMPS,ioos:station:USF.COMPS:EGK:1,2011-01-04T12:36:00Z,27.6010,-82.7510,13.22,1111122 
COMPS,ioos:station:USF.COMPS:EGK:1,2011-01-04T12:42:00Z,27.6010,-82.7510,13.37,1111122 
COMPS,ioos:station:USF.COMPS:EGK:1,2011-01-04T12:48:00Z,27.6010,-82.7510,13.47,1111122 
COMPS,ioos:station:USF.COMPS:EGK:1,2011-01-04T12:54:00Z,27.6010,-82.7510,13.47,1111122 
COMPS,ioos:station:USF.COMPS:EGK:1,2011-01-04T13:00:00Z,27.6010,-82.7510,13.5,1111122 
COMPS,ioos:station:USF.COMPS:EGK:1,2011-01-04T13:06:00Z,27.6010,-82.7510,13.52,1111122 
COMPS,ioos:station:USF.COMPS:EGK:1,2011-01-04T13:12:00Z,27.6010,-82.7510,13.59,1111122 
COMPS,ioos:station:USF.COMPS:EGK:1,2011-01-04T13:18:00Z,27.6010,-82.7510,13.6,1111122 
COMPS,ioos:station:USF.COMPS:EGK:1,2011-01-04T13:24:00Z,27.6010,-82.7510,13.6,1111122 
COMPS,ioos:station:USF.COMPS:EGK:1,2011-01-04T13:30:00Z,27.6010,-82.7510,13.6,1111122 
COMPS,ioos:station:USF.COMPS:EGK:1,2011-01-04T13:36:00Z,27.6010,-82.7510,13.73,1111122 
COMPS,ioos:station:USF.COMPS:EGK:1,2011-01-04T13:42:00Z,27.6010,-82.7510,13.87,1111122 
COMPS,ioos:station:USF.COMPS:EGK:1,2011-01-04T13:48:00Z,27.6010,-82.7510,13.96,1111122 
COMPS,ioos:station:USF.COMPS:EGK:1,2011-01-04T13:54:00Z,27.6010,-82.7510,14.04,1111122 
COMPS,ioos:station:USF.COMPS:EGK:1,2011-01-04T14:00:00Z,27.6010,-82.7510,14.01,1111122 
COMPS,ioos:station:USF.COMPS:EGK:1,2011-01-04T14:06:00Z,27.6010,-82.7510,14.12,1111122 
COMPS,ioos:station:USF.COMPS:EGK:1,2011-01-04T14:12:00Z,27.6010,-82.7510,14.23,1111122 
COMPS,ioos:station:USF.COMPS:EGK:1,2011-01-04T14:18:00Z,27.6010,-82.7510,14.28,1111122 
COMPS,ioos:station:USF.COMPS:EGK:1,2011-01-04T14:24:00Z,27.6010,-82.7510,14.42,1111122 
COMPS,ioos:station:USF.COMPS:EGK:1,2011-01-04T14:30:00Z,27.6010,-82.7510,14.52,1111122 
COMPS,ioos:station:USF.COMPS:EGK:1,2011-01-04T14:36:00Z,27.6010,-82.7510,14.44,1111122 
COMPS,ioos:station:USF.COMPS:EGK:1,2011-01-04T14:42:00Z,27.6010,-82.7510,14.4,1111122 
COMPS,ioos:station:USF.COMPS:EGK:1,2011-01-04T14:48:00Z,27.6010,-82.7510,14.45,1111122 
COMPS,ioos:station:USF.COMPS:EGK:1,2011-01-04T14:54:00Z,27.6010,-82.7510,14.63,1111122 
COMPS,ioos:station:USF.COMPS:EGK:1,2011-01-04T15:00:00Z,27.6010,-82.7510,14.79,1111122 
COMPS,ioos:station:USF.COMPS:EGK:1,2011-01-04T15:06:00Z,27.6010,-82.7510,15.09,1111122 
COMPS,ioos:station:USF.COMPS:EGK:1,2011-01-04T15:12:00Z,27.6010,-82.7510,15.2,1111122 
COMPS,ioos:station:USF.COMPS:EGK:1,2011-01-04T15:18:00Z,27.6010,-82.7510,15.32,1111122 
COMPS,ioos:station:USF.COMPS:EGK:1,2011-01-04T15:24:00Z,27.6010,-82.7510,15.08,1111122 
COMPS,ioos:station:USF.COMPS:EGK:1,2011-01-04T15:30:00Z,27.6010,-82.7510,14.74,1111122 
COMPS,ioos:station:USF.COMPS:EGK:1,2011-01-04T15:36:00Z,27.6010,-82.7510,14.64,1111122 
COMPS,ioos:station:USF.COMPS:EGK:1,2011-01-04T15:42:00Z,27.6010,-82.7510,14.75,1111122 
COMPS,ioos:station:USF.COMPS:EGK:1,2011-01-04T15:48:00Z,27.6010,-82.7510,14.66,1111122 
COMPS,ioos:station:USF.COMPS:EGK:1,2011-01-04T15:54:00Z,27.6010,-82.7510,14.57,1111122 
COMPS,ioos:station:USF.COMPS:EGK:1,2011-01-04T16:00:00Z,27.6010,-82.7510,14.6,1111122 
COMPS,ioos:station:USF.COMPS:EGK:1,2011-01-04T16:06:00Z,27.6010,-82.7510,14.56,1111122 
COMPS,ioos:station:USF.COMPS:EGK:1,2011-01-04T16:12:00Z,27.6010,-82.7510,14.64,1111122 
COMPS,ioos:station:USF.COMPS:EGK:1,2011-01-04T16:18:00Z,27.6010,-82.7510,14.8,1111122 
COMPS,ioos:station:USF.COMPS:EGK:1,2011-01-04T16:24:00Z,27.6010,-82.7510,15.02,1111122 
COMPS,ioos:station:USF.COMPS:EGK:1,2011-01-04T16:30:00Z,27.6010,-82.7510,15.33,1111122 
COMPS,ioos:station:USF.COMPS:EGK:1,2011-01-04T16:36:00Z,27.6010,-82.7510,15.53,1111122 
COMPS,ioos:station:USF.COMPS:EGK:1,2011-01-04T16:42:00Z,27.6010,-82.7510,15.61,1111122 